DELTA 1 DEB, 3051

Orbit data source: Space-Track

DELTA 1 DEB, 3051 is space debris in SSO originally from a launch on Fri, 10 Nov 1967 UTC launched from the Air Force Western Test Range (AFWTR). Debris objects in space refer to the collection of defunct objects orbiting the Earth. Examples of debris include non-operational satellites, rocket bodies, and fragments generated from explosions, collisions, or faulty payload assembly.

Loading next visibility...
Identifier
3051, 1967-114C
Orbit
SSO
Last TLE update
14 hours ago
Origin
Manufacturer
Unknown
Mission
Spacecraft
Bus & Motor
Unknown
Mass
Unknown
Launch date (UTC)
1967-11-10 (58 years ago)
Launch vehicle
Unknown
Launch site
Air Force Western Test Range (AFWTR)
Object type
Payload
Rocket body
Debris
Shape & HBR
Unknown
Radar Cross Section
Small (<0.1 m²)

Expand to show TLE details & history

TLE from 14 hours ago
0 DELTA 1 DEB
1 03051U 67114C   25181.46513808 -.00000022  00000-0  10775-3 0  9998
2 03051 101.1138 165.4227 0090114 105.9436  44.4465 12.62275497654889
Epoch: 2025-06-30T11:09Z
TLE epoch observation values (Epoch: 2025-06-30T11:09:47.93Z)
Latitude
28.33295°
Longitude
-94.75179°
Altitude
1,366.984 km
Speed
7.201 km/s
True Right ascension
23h 25m 53s
True Declination
28° 12' 03"
Sunlit
Object was in daylight at epoch
Visualization orbit readout
Latitude
-20.46241°
Longitude
83.94935°
Altitude
1,461.304 km
Speed
7.113 km/s
Apparent Right ascension
08h 55m 32s
Apparent Declination
-61° 39' 34"
Sunlit
Object is in daylight
Visualization observer readout
Local Sidereal Time
13:05:51
Azimuth
207.33° SW
Elevation
-23.395°
Doppler factor
1
Orbital elements
Apogee altitude
1,481.252 km
Perigee altitude
1,340.869 km
Semi-major axis
7,789.197 km
Eccentricity
0.00901
Inclination
101.1138°
RAAN
165.4227°
Arg. of periapsis
105.9436°
True anomaly
Unknown
Mean anomaly
44.4465°
Eccentric anomaly
Unknown
Mean motion
3.15721 °/min
Orbital period
114.02 mins
BSTAR
0.00010775
Loading maneuver chart data...
Loading SW <> Apogee altitude chart data...
Loading historical data...
Loading historical data...
Loading historical data...
Loading historical data...
Loading historical data...
Loading historical data...
Loading historical data...
Other satellites on launch #114 in the year 1967 (1967-11-10 UTC)

DELTA 1 DEB Visibility forecast

Observer location: undefined°, undefined°

Span
Click to sort rows by Start time (UTC) header in descending order
Start Az.
Max El. time (UTC)
Max El. Az.
Max El.
End time (UTC)
End Az.
4 mins2025-07-01 09:54:52.797Z73.858° E2025-07-01 09:56:52.797Z89.401° E11.562°2025-07-01 09:58:52.797Z104.76° ESE
14 mins2025-07-01 11:43:52.797Z21.96° NNE2025-07-01 11:49:52.797Z97.535° ESE43.938°2025-07-01 11:57:52.797Z190.833° SSW
10 mins2025-07-01 13:36:52.797Z345.338° N2025-07-01 13:40:52.797Z309.346° NW22.035°2025-07-01 13:46:52.797Z256.776° W
7 mins2025-07-01 20:49:52.797Z78.95° E2025-07-01 20:52:52.797Z52.823° ENE17.586°2025-07-01 20:56:52.797Z19.098° NNE
14 mins2025-07-01 22:36:52.797Z158.082° S2025-07-01 22:43:52.797Z80.608° E44.869°2025-07-01 22:50:52.797Z344.952° N
8 mins2025-07-02 00:32:52.797Z235.573° WSW2025-07-02 00:36:52.797Z268.942° W17.302°2025-07-02 00:40:52.797Z302.373° NW
|